GW0889 Weather Reports


time (UTC)temp
C
wind
direction
speed
KPH
gust
KPH
rain 1hr
cm
rain 24hr
cm
rain mn
cm
humidity
%
barometer
mb
20260504201508 25 211 11.3 24.1 0.00 0.03 0.03 50 1008.6
20260504201004 25 234 4.8 25.7 0.00 0.03 0.03 52 1008.5
20260504200502 24 206 9.7 25.7 0.00 0.03 0.03 52 1008.7
20260504200005 24 221 9.7 22.5 0.00 0.03 0.03 53 1008.8
20260504195502 23 213 9.7 22.5 0.00 0.03 0.03 54 1008.8
20260504195100 23 223 12.9 22.5 0.00 0.03 0.03 52 1008.9
20260504195001 23 234 12.9 22.5 0.00 0.03 0.03 53 1008.9
20260504194605 23 236 9.7 30.6 0.00 0.03 0.03 54 1008.9
20260504194059 23 213 16.1 30.6 0.00 0.03 0.03 54 1009.0
20260504193557 22 210 14.5 25.7 0.00 0.03 0.03 54 1009.0
20260504193107 22 215 14.5 25.7 0.00 0.03 0.03 55 1009.2
20260504192556 22 215 14.5 25.7 0.00 0.03 0.03 54 1009.2
20260504192056 22 208 16.1 25.7 0.00 0.03 0.03 55 1009.3
20260504191610 22 219 12.9 24.1 0.00 0.03 0.03 55 1009.4
20260504191056 21 207 6.4 25.7 0.00 0.03 0.03 58 1009.4
20260504190554 21 236 14.5 25.7 0.00 0.03 0.03 56 1009.5
20260504190107 21 217 11.3 24.1 0.00 0.03 0.03 61 1009.4
20260504185554 20 227 11.3 24.1 0.00 0.03 0.03 63 1009.6
20260504185053 20 227 11.3 25.7 0.00 0.03 0.03 65 1009.7
20260504184555 19 216 11.3 20.9 0.00 0.03 0.03 67 1009.8
20260504184053 19 206 4.8 24.1 0.00 0.03 0.03 72 1010.0
20260504183555 18 217 11.3 24.1 0.00 0.03 0.03 67 1010.0
20260504183053 19 182 11.3 24.1 0.00 0.03 0.03 65 1009.4
20260504182552 20 258 9.7 24.1 0.00 0.03 0.03 62 1010.4
20260504182051 20 232 12.9 30.6 0.00 0.03 0.03 59 1010.9
20260504181559 20 235 19.3 30.6 0.00 0.03 0.03 57 1011.1
20260504181051 21 226 16.1 38.6 0.00 0.03 0.03 55 1010.9
20260504180552 21 202 17.7 38.6 0.00 0.03 0.03 54 1010.6
20260504180052 21 234 20.9 29.0 0.00 0.03 0.03 52 1010.4
20260504175548 22 218 14.5 25.7 0.00 0.03 0.03 52 1010.3
20260504175049 22 233 14.5 33.8 0.00 0.03 0.03 52 1010.1
20260504174549 22 216 14.5 37.0 0.00 0.03 0.03 51 1010.0
20260504174049 23 229 14.5 22.5 0.00 0.03 0.03 51 1009.9
20260504173548 23 248 6.4 22.5 0.00 0.03 0.03 52 1009.9
20260504173052 22 259 14.5 22.5 0.00 0.03 0.03 52 1009.8
20260504172545 22 219 6.4 20.9 0.00 0.03 0.03 53 1009.9
20260504172044 22 219 11.3 20.9 0.00 0.03 0.03 53 1010.0
20260504171543 21 234 6.4 17.7 0.00 0.03 0.03 56 1010.0
20260504171041 21 207 9.7 17.7 0.00 0.03 0.03 56 1010.0
20260504170536 20 258 8.0 20.9 0.00 0.03 0.03 59 1010.2
20260504151047 16 219 11.3 24.1 0.00 0.03 0.03 68 1011.8
20260504150544 16 225 9.7 24.1 0.00 0.03 0.03 69 1011.7
20260504141026 13 213 9.7 25.7 0.03 0.03 0.03 78 1012.5
20260504140526 13 219 11.3 24.1 0.03 0.03 0.03 78 1012.7
20260504130516 13 292 9.7 24.1 0.00 0.00 0.00 69 1013.1
20260504110552 12 227 3.2 11.3 0.00 0.00 0.00 62 1012.4
20260504100538 11 202 8.0 14.5 0.00 0.00 0.00 61 1012.4
20260504081526 11 177 0.0 3.2 0.00 0.00 0.00 61 1013.0
20260504081026 11 177 0.0 3.2 0.00 0.00 0.00 61 1012.9
20260504080524 11 173 0.0 3.2 0.00 0.00 0.00 61 1013.0
20260504050506 13 228 9.7 17.7 0.00 0.00 0.00 51 1014.1
20260504050005 13 186 9.7 17.7 0.00 0.00 0.00 52 1014.0
20260504045506 13 234 6.4 12.9 0.00 0.00 0.00 53 1014.0
20260504045005 13 176 6.4 12.9 0.00 0.00 0.00 54 1014.2
20260504044509 13 223 4.8 8.0 0.00 0.00 0.00 56 1014.6
20260504044005 13 211 3.2 9.7 0.00 0.00 0.00 55 1014.6
20260504043505 13 246 0.0 9.7 0.00 0.00 0.00 57 1014.8
20260504043008 13 321 0.0 8.0 0.00 0.00 0.00 62 1014.7
20260504042505 13 322 0.0 8.0 0.00 0.00 0.00 60 1014.9
20260504042002 13 320 1.6 8.0 0.00 0.00 0.00 57 1014.7
20260504041503 13 196 0.0 0.0 0.00 0.00 0.00 59 1014.9
20260504041002 13 196 0.0 0.0 0.00 0.00 0.00 61 1015.0
20260504040502 13 196 0.0 0.0 0.00 0.00 0.00 60 1014.9
20260504040002 13 196 0.0 0.0 0.00 0.00 0.00 59 1014.7
20260504035502 13 196 0.0 0.0 0.00 0.00 0.00 58 1014.9
20260504035002 13 196 0.0 0.0 0.00 0.00 0.00 57 1015.2
20260504034502 13 196 0.0 0.0 0.00 0.00 0.00 55 1015.0
20260504034002 13 196 0.0 0.0 0.00 0.00 0.00 56 1014.9
20260504033501 13 196 0.0 0.0 0.00 0.00 0.00 57 1014.8
20260504033001 13 196 0.0 0.0 0.00 0.00 0.00 56 1014.8
20260504032501 13 196 0.0 0.0 0.00 0.00 0.00 55 1014.8
20260504032102 13 196 0.0 0.0 0.00 0.00 0.00 56 1014.8
20260504031623 14 196 0.0 0.0 0.00 0.00 0.00 55 1014.6
20260504031100 14 259 0.0 0.0 0.00 0.00 0.00 54 1014.7
20260504030558 14 259 0.0 0.0 0.00 0.00 0.00 55 1014.8
20260504030059 14 274 0.0 0.0 0.00 0.00 0.00 55 1014.9
20260504025600 14 275 0.0 0.0 0.00 0.00 0.00 55 1015.0
20260504025058 14 275 0.0 0.0 0.00 0.00 0.00 55 1015.1
20260504024604 14 267 0.0 0.0 0.00 0.00 0.00 53 1015.1
20260504024057 14 267 0.0 0.0 0.00 0.00 0.00 51 1015.1
20260504023557 14 267 0.0 0.0 0.00 0.00 0.00 53 1015.0
20260504023058 14 267 0.0 3.2 0.00 0.00 0.00 47 1014.9
20260504022557 14 267 0.0 6.4 0.00 0.00 0.00 47 1015.0
20260504022057 15 271 1.6 6.4 0.00 0.00 0.00 50 1014.9
20260504021555 15 295 1.6 9.7 0.00 0.00 0.00 51 1014.8
20260504021054 15 295 3.2 9.7 0.00 0.00 0.00 50 1014.7
20260504020558 15 272 1.6 4.8 0.00 0.00 0.00 48 1014.6
20260504020108 15 217 0.0 8.0 0.00 0.00 0.00 47 1014.5
20260504015557 15 215 4.8 8.0 0.00 0.00 0.00 42 1014.4
20260504015054 15 188 0.0 6.4 0.00 0.00 0.00 42 1014.3
20260504014553 15 187 0.0 6.4 0.00 0.00 0.00 41 1014.2
20260504014052 15 187 1.6 4.8 0.00 0.00 0.00 40 1014.0
20260504013553 15 187 0.0 6.4 0.00 0.00 0.00 41 1014.0
20260504013052 15 187 0.0 9.7 0.00 0.00 0.00 41 1013.8
20260504012554 15 188 1.6 9.7 0.00 0.00 0.00 40 1013.9
20260504012052 15 189 3.2 8.0 0.00 0.00 0.00 40 1013.9
20260504011548 15 190 4.8 9.7 0.00 0.00 0.00 40 1014.0
20260504011049 15 201 4.8 9.7 0.00 0.00 0.00 40 1014.1
20260504010548 15 186 1.6 4.8 0.00 0.00 0.00 40 1014.1
20260504010050 15 191 1.6 9.7 0.00 0.00 0.00 40 1014.2
20260504005548 15 190 3.2 9.7 0.00 0.00 0.00 40 1014.2
20260504005052 15 200 1.6 8.0 0.00 0.00 0.00 41 1014.2
20260504004547 15 207 3.2 8.0 0.00 0.00 0.00 40 1014.3
20260504004047 15 210 1.6 8.0 0.00 0.00 0.00 39 1014.3
20260504003546 16 212 3.2 8.0 0.00 0.00 0.00 39 1014.4
20260504003046 16 212 4.8 8.0 0.00 0.00 0.00 38 1014.3
20260504002546 16 205 3.2 8.0 0.00 0.00 0.00 38 1014.3
20260504002046 16 217 3.2 9.7 0.00 0.00 0.00 37 1014.3
20260504001551 16 220 3.2 9.7 0.00 0.00 0.00 37 1014.2
20260504001044 16 227 4.8 9.7 0.00 0.00 0.00 36 1014.3
20260504000543 16 224 4.8 8.0 0.00 0.00 0.00 36 1014.3
20260504000043 16 220 4.8 8.0 0.00 0.00 0.00 36 1014.3
20260503235543 16 227 3.2 9.7 0.00 0.00 0.00 36 1014.3
20260503235045 16 229 4.8 9.7 0.00 0.00 0.00 35 1014.4
20260503234601 16 235 4.8 11.3 0.00 0.00 0.00 34 1014.3
20260503234046 16 236 6.4 14.5 0.00 0.00 0.00 34 1014.3
20260503233545 17 231 8.0 19.3 0.00 0.00 0.00 33 1014.2
20260503233047 17 262 11.3 19.3 0.00 0.00 0.00 33 1014.3
20260503232542 17 234 8.0 14.5 0.00 0.00 0.00 33 1014.3
20260503232041 17 240 6.4 16.1 0.00 0.00 0.00 33 1014.3
20260503231538 17 215 8.0 16.1 0.00 0.00 0.00 32 1014.4
20260503231037 17 262 6.4 16.1 0.00 0.00 0.00 32 1014.5
20260503230539 17 291 8.0 16.1 0.00 0.00 0.00 32 1014.6
20260503230036 17 248 4.8 16.1 0.00 0.00 0.00 33 1014.6
20260503225536 17 232 9.7 16.1 0.00 0.00 0.00 33 1014.6
20260503225036 17 221 9.7 17.7 0.00 0.00 0.00 32 1014.6
20260503224535 17 261 8.0 19.3 0.00 0.00 0.00 32 1014.9
20260503224035 17 262 11.3 19.3 0.00 0.00 0.00 32 1014.9
20260503223535 17 241 11.3 19.3 0.00 0.00 0.00 32 1014.6
20260503223035 17 226 11.3 19.3 0.00 0.00 0.00 31 1015.0
20260503222538 18 227 8.0 16.1 0.00 0.00 0.00 31 1015.0
20260503222034 17 222 8.0 16.1 0.00 0.00 0.00 32 1015.0
20260503221505 17 250 9.7 20.9 0.00 0.00 0.00 32 1015.1
20260503221005 17 237 11.3 20.9 0.00 0.00 0.00 32 1015.0
20260503220506 17 213 9.7 19.3 0.00 0.00 0.00 32 1014.8
20260503220005 18 226 12.9 19.3 0.00 0.00 0.00 31 1015.0
20260503215502 18 269 6.4 20.9 0.00 0.00 0.00 31 1015.0
20260503215003 18 250 4.8 20.9 0.00 0.00 0.00 30 1015.0
20260503214602 19 242 8.0 17.7 0.00 0.00 0.00 30 1015.0
20260503214032 19 229 6.4 16.1 0.00 0.00 0.00 30 1015.0
20260503213532 18 232 6.4 17.7 0.00 0.00 0.00 31 1015.1
20260503213036 18 219 9.7 17.7 0.00 0.00 0.00 30 1015.0
20260503212531 19 218 4.8 11.3 0.00 0.00 0.00 30 1015.1
20260503212031 19 232 3.2 17.7 0.00 0.00 0.00 29 1015.1
20260503211530 19 249 11.3 17.7 0.00 0.00 0.00 30 1015.1
20260503211001 19 5 3.2 14.5 0.00 0.00 0.00 31 1015.2
20260503210501 18 281 8.0 14.5 0.00 0.00 0.00 30 1015.3
20260503210105 18 208 6.4 17.7 0.00 0.00 0.00 31 1015.3
20260503205600 18 183 8.0 22.5 0.00 0.00 0.00 32 1015.4
20260503205058 18 235 12.9 22.5 0.00 0.00 0.00 31 1015.4
20260503204559 18 200 8.0 22.5 0.00 0.00 0.00 31 1015.4
20260503204055 18 221 14.5 22.5 0.00 0.00 0.00 30 1015.5
20260503203555 18 222 8.0 16.1 0.00 0.00 0.00 30 1015.6
20260503203057 19 244 9.7 16.1 0.00 0.00 0.00 30 1015.7
20260503202554 19 185 6.4 17.7 0.00 0.00 0.00 30 1015.7
20260503202053 19 221 4.8 16.1 0.00 0.00 0.00 31 1015.7